EDT,Max TemperatureF,Mean TemperatureF,Min TemperatureF,Max Dew PointF,MeanDew PointF,Min DewpointF,Max Humidity, Mean Humidity, Min Humidity, Max Sea Level PressureIn, Mean Sea Level PressureIn, Min Sea Level PressureIn, Max VisibilityMiles, Mean VisibilityMiles, Min VisibilityMiles, Max Wind SpeedMPH, Mean Wind SpeedMPH, Max Gust SpeedMPH,PrecipitationIn, CloudCover, Events, WindDirDegrees
2014-3-1,35,21,7,32,18,1,89,72,54,30.43,30.31,30.12,10,10,10,14,4,21,0.00,4,,199
2014-3-2,37,35,32,30,27,22,85,73,53,30.10,30.01,29.95,10,9,4,15,8,,0.00,6,Snow,255
2014-3-3,33,27,21,29,17,2,88,72,42,30.25,30.03,29.93,10,5,0,23,11,33,0.02,6,Fog-Snow,352
2014-3-4,28,24,19,16,11,3,63,56,45,30.35,30.29,30.25,10,10,10,13,8,20,0.00,2,,291
2014-3-5,33,28,24,26,20,12,85,72,46,30.40,30.28,30.22,10,7,1,20,8,29,0.00,8,Snow,13
2014-3-6,28,20,10,16,12,7,84,63,55,30.58,30.53,30.42,10,10,9,18,12,26,0.00,5,,15
2014-3-7,39,24,10,34,23,6,93,78,60,30.51,30.20,29.90,10,10,10,12,4,,0.00,3,,32
2014-3-8,46,38,30,36,31,21,97,79,44,29.89,29.77,29.69,10,10,8,14,10,23,0.00,4,,358
2014-3-9,37,32,26,27,19,10,75,57,32,29.93,29.87,29.82,10,10,10,16,9,25,0.00,4,,346
2014-3-10,41,34,28,34,27,13,93,80,45,29.89,29.80,29.67,10,6,1,14,6,,0.00,7,Snow,231
2014-3-11,59,46,32,37,34,27,93,69,39,29.71,29.59,29.52,10,9,5,12,8,21,0.00,1,,228
2014-3-12,53,43,33,52,44,28,100,89,68,29.71,29.28,28.95,10,5,1,21,7,32,0.43,6,Rain,184
2014-3-13,48,36,19,50,20,1,96,77,44,29.89,29.28,28.94,10,5,1,26,17,40,0.04,8,Rain-Snow,326
2014-3-14,39,26,16,31,12,-2,73,54,42,30.19,30.07,29.93,10,10,10,23,13,31,0.00,0,,242
2014-3-15,53,44,33,40,34,25,86,68,46,29.96,29.81,29.70,10,10,5,18,13,26,0.01,2,Rain,227
2014-3-16,39,34,30,27,10,2,75,37,23,30.17,30.05,29.89,10,10,10,17,9,25,0.00,1,,309
2014-3-17,30,22,14,15,12,7,80,58,43,30.16,30.09,30.02,10,10,10,21,13,31,0.00,6,,21
2014-3-18,37,24,12,19,15,7,84,65,42,30.35,30.27,30.16,10,10,10,15,4,21,0.00,0,,30
2014-3-19,42,30,19,36,25,16,89,73,53,30.37,30.24,29.96,10,10,10,12,5,21,0.00,2,,117
2014-3-20,55,46,37,47,40,28,100,82,53,29.97,29.69,29.60,10,7,1,20,9,30,0.33,7,Rain,206
2014-3-21,48,41,34,28,22,18,73,49,35,30.03,29.86,29.77,10,10,10,22,10,30,0.00,2,,273
2014-3-22,54,38,23,39,28,17,81,63,41,30.05,29.89,29.68,10,10,10,24,8,36,0.00,0,,230
2014-3-23,45,38,30,27,20,11,67,50,32,29.99,29.94,29.87,10,10,10,18,8,30,0.00,3,,316
2014-3-24,30,24,17,9,6,2,68,47,35,30.14,30.08,30.00,10,10,10,23,14,34,0.00,3,,352
2014-3-25,36,24,14,19,10,5,80,51,32,30.15,30.07,29.84,10,10,10,14,4,22,0.00,1,,195
2014-3-26,34,30,27,28,19,3,96,64,34,29.93,29.54,29.37,10,4,0,38,24,64,0.26,7,Fog-Rain-Snow,350
2014-3-27,37,28,21,28,10,0,73,46,26,30.32,30.24,29.97,10,10,10,20,15,34,0.00,0,,272
2014-3-28,53,45,37,44,39,29,93,82,66,30.27,30.12,30.02,10,8,4,23,13,32,0.04,5,Rain,206
2014-3-29,53,44,36,45,42,35,100,92,71,30.22,30.11,29.92,10,4,0,15,8,23,0.83,7,Fog-Rain,90
2014-3-30,55,46,37,53,45,37,100,96,93,29.88,29.63,29.54,5,2,0,23,12,39,1.17,8,Fog-Rain-Snow,84
2014-3-31,37,36,35,37,34,31,97,89,76,29.90,29.75,29.59,10,6,1,26,22,43,0.14,8,Rain-Snow,6